Location: Bacharowice
(49.9333°N, 19.5833°E)
Time: 08:28:23
(UTC+00:00)

Cosmos 2344 - Pass Details

Date: 28 September 2021
Orbit: 1235 x 3007 km, 63.3° (Epoch: 19 October)

Event Time Altitude Azimuth Distance (km) Brightness Sun altitude
Rises 20:55:04 0° 313° (NW) 4,381 7.3 -38.2°
Reaches altitude 10° 20:57:41 10° 317° (NW) 3,520 6.6 -38.4°
Maximum altitude 21:06:17 67° 40° (NE) 1,837 4.2 -39.1°
Enters shadow 21:06:38 67° 51° (NE) 1,856 4.2 -39.1°
